Flag for China Weather past 2 weeks in Xiamen, Fujian, China

Now
77 °F

Partly cloudy.


Feels Like: 78 °F
Forecast: 76 / 91 °F
Wind: 8 mph from East

Location: Xiamen Airport

Current Time: Oct 2, 2014 at 4:20:01 AM

Latest Report: Oct 2, 2014 at 3:00 AM


Visibility: N/A

Pressure: 29.86 "Hg

Humidity: 83%

Dew point: 72 °F

Location of XiamenLocation

Historic Weather in Xiamen — Graph

°F

Xiamen temperature yesterday

Maximum temperature yesterday: 86 °F (at 1:00 PM)
Minimum temperature yesterday: 79 °F (at 9:00 PM)
Average temperature yesterday: 82 °F

Past Weeks' High & Low Weather Summary

 TemperatureHumidityPressure
High95 °F (Sep 19, 1:00 PM)100% (Sep 25, 6:00 AM)29.98 "Hg (Sep 25, 6:00 AM)
Low75 °F (Sep 22, 6:00 AM)47% (Sep 19, 10:00 AM)29.56 "Hg (Sep 20, 3:00 PM)
Average84 °F76%29.82 "Hg
* Reported Sep 17 3:00 AM — Oct 2 3:00 AM, Xiamen, Weather by CustomWeather, © 2014

Note: Actual official high and low records may vary slightly from our data, if they occured in-between our weather recording intervals... More about our weather records

Advertising

Xiamen weather history for previous 24 hours

 ConditionsComfort  
Time TempWeatherWind HumidityBarometerVisibility
3:00 AM
Oct 2
77 °FPartly cloudy.8 mph83%29.86 "HgN/A
2:00 AM77 °FPartly cloudy.8 mph83%29.89 "HgN/A
1:00 AM77 °FPassing clouds.10 mph83%29.89 "HgN/A
12:00 AM77 °FPassing clouds.13 mph83%29.92 "HgN/A
11:00 PM
Oct 1
79 °FPartly cloudy.8 mph79%29.92 "HgN/A
10:00 PM79 °FPassing clouds.13 mph79%29.92 "HgN/A
9:00 PM79 °FPassing clouds.8 mph84%29.92 "HgN/A
8:00 PM81 °FPartly cloudy.10 mph79%29.89 "HgN/A
7:00 PM81 °FPassing clouds.10 mph79%29.89 "HgN/A
6:00 PM81 °FPassing clouds.13 mph79%29.86 "HgN/A
5:00 PM82 °FPassing clouds.15 mph74%29.86 "HgN/A
4:00 PM84 °FPassing clouds.13 mph70%29.83 "HgN/A
3:00 PM86 °FPassing clouds.10 mph62%29.86 "HgN/A
2:00 PM86 °FScattered clouds.10 mph62%29.86 "HgN/A
1:00 PM86 °FPartly sunny.10 mph59%29.89 "HgN/A
12:00 PM84 °FPartly sunny.8 mph66%29.92 "HgN/A
11:00 AM84 °FBroken clouds.10 mph66%29.92 "HgN/A
10:00 AM82 °FMostly cloudy.10 mph70%29.95 "HgN/A
9:00 AM82 °FMostly cloudy.10 mph70%29.95 "HgN/A
8:00 AM81 °FOvercast.10 mph74%29.95 "HgN/A
7:00 AM81 °FOvercast.10 mph74%29.92 "HgN/A
6:00 AM81 °FOvercast.13 mph74%29.92 "HgN/A
5:00 AM81 °FPassing clouds.13 mph79%29.92 "HgN/A
4:00 AM81 °FPassing clouds.13 mph79%29.89 "HgN/A
Weather by CustomWeather, © 2014

See weather overviewHow to use our weather pages